Torna al catalogo

NILESAT

AttivoComunicazioniGEO
NORAD 25311·PAYLOAD·🇪🇬 Egypt

Lanciato Apr 28, 1998 da Guiana Space Centre

Loading…

TLE

AggiornatoSource: Space-Track

Epoca: Sep 14, 2026, 13:54 UTC

1 25311U 98024A   26257.57926103 -.00000120  00000-0  00000-0 0  9994
2 25311  10.8936  50.4433 0021529 292.4183 240.4664  0.97394515 51216

Traccia NILESAT in tempo reale con AllMySat

Download on the App Store